Regional Weather Roundup
Issued by NWS

Home | Current Version | Previous Version | Graphics & Text | Print | Product List | Glossary On
Versions: 1 2 3 4 5 6 7 8 9 10 11 12 13 14 15 16 17 18 19 20 21 22 23 24 25 26 27 28 29 30 31 32 33 34 35 36 37 38 39 40 41 42 43 44 45 46 47 48 49 50
000
ASUS43 KMKX 202300
RWRWI

WISCONSIN REGIONAL WEATHER ROUNDUP
NATIONAL WEATHER SERVICE MILWAUKEE/SULLIVAN WI
600 PM CDT SUN AUG 20 2017

NOTE: "FAIR" INDICATES FEW OR NO CLOUDS BELOW 12,000 FEET WITH NO
SIGNIFICANT WEATHER AND/OR OBSTRUCTIONS TO VISIBILITY.

WIZ001-002-006>008-014>016-023>028-210000-
NORTHWEST WISCONSIN

CITY           SKY/WX    TMP DP  RH WIND       PRES   REMARKS
SUPERIOR ARPT    N/A     77  60  54 W8        29.91S
ASHLAND        CLOUDY    76  66  71 SW5       29.91S
HAYWARD        CLOUDY    78  64  61 CALM      29.93F HX  80
SIREN          CLOUDY    78  63  59 NW5       29.95R HX  80
CUMBERLAND     MOSUNNY   77  64  65 W6        29.96R
RICE LAKE      MOSUNNY   80  68  66 SW3       29.95S HX  82
CHETEK         MOSUNNY   80  71  73 W5        29.95R HX  83
LADYSMITH      MOSUNNY   80  69  68 SW7       29.96S HX  82
EAU CLAIRE     MOSUNNY   83  65  54 SW9       29.93S HX  85
MENOMONIE      SUNNY     83  66  57 SW9       29.94R HX  85
NEW RICHMOND   PTSUNNY   80  65  61 NW3       29.94S HX  82
OSCEOLA        PTSUNNY   78  64  61 N7        29.97R HX  80
$$

WIZ003>005-009-010-017-018-210000-
NORTH CENTRAL WISCONSIN

CITY           SKY/WX    TMP DP  RH WIND       PRES   REMARKS
MANITOWISH WTR MOSUNNY   76  68  75 W6        29.95R
ARBOR VITAE    SUNNY     80  69  70 SW10      29.95R HX  82
WOODRUFF       SUNNY     80  69  70 SW10      29.95R HX  82
RHINELANDER    MOSUNNY   78  67  68 W13       29.97R HX  80
EAGLE RIVER    SUNNY     78  65  63 W9        29.94R HX  80
LAND O LAKES   SUNNY     80  64  59 W9G17     29.95R HX  81
PHILLIPS       CLOUDY    77  69  77 SW7       29.95R
TOMAHAWK         N/A     79  65  63 W6        29.96S HX  80
MEDFORD        MOSUNNY   78  67  67 SW3       29.96S HX  80
MERRILL        NOT AVBL
$$

WIZ029-030-035-036-043>047-210000-
CENTRAL WISCONSIN

CITY           SKY/WX    TMP DP  RH WIND       PRES   REMARKS
WAUSAU         SUNNY     80  65  59 SW10      29.95R HX  82
MOSINEE        MOSUNNY   81  64  57 SW10      29.98S HX  82
MARSHFIELD     MOSUNNY   80  64  58 SW9       29.97R HX  82
STEVENS POINT  PTSUNNY   80  65  60 SW7       29.98R HX  81
WAUPACA        MOSUNNY   82  66  57 SW7       29.97S HX  84
WAUTOMA        SUNNY     81  68  64 SW7       29.98R HX  84
WISC RAPIDS    PTSUNNY   82  66  58 SW8       29.99R HX  84
CAMP DOUGLAS   SUNNY     82  67  61 S5        29.98R HX  84
$$

WIZ011>013-019>022-031-037>040-048>050-210000-
NORTHEAST WISCONSIN

CITY           SKY/WX    TMP DP  RH WIND       PRES   REMARKS
ANTIGO         PTSUNNY   80  65  60 W12G17    29.97R HX  81
SHAWANO        SUNNY     82  68  63 CALM      29.94S HX  85
OCONTO         MOSUNNY   79  68  69 SW10G16   29.93F HX  82
STURGEON BAY   PTSUNNY   75  68  78 S10       29.95S
GREEN BAY      CLOUDY    79  71  76 S7        29.95F HX  82
MANITOWOC      NOT AVBL
APPLETON       MOSUNNY   79  64  61 SW8       29.96S HX  81
CLINTONVILLE   MOSUNNY   79  66  65 SW6       29.95S HX  81
OSHKOSH        PTSUNNY   79  68  69 S8        29.97S HX  81
$$

WIZ032>034-041-042-053>061-210000-
SOUTHWEST WISCONSIN

CITY           SKY/WX    TMP DP  RH WIND       PRES   REMARKS
LA CROSSE      SUNNY     87  66  49 S3        29.95R HX  89
SPARTA         SUNNY     81  67  61 CALM      29.97R HX  83
VIROQUA        SUNNY     82  69  65 CALM      30.00R HX  85
BOSCOBEL       SUNNY     83  67  58 VRB3      29.98R HX  85
PRAIRIE DU CHI SUNNY     82  60  47 S6        29.98R HX  82
PLATTEVILLE    MOSUNNY   78  70  76 CALM      30.02R HX  81
$$

WIZ056-057-062-063-064-067-068-210000-
SOUTH CENTRAL WISCONSIN

CITY           SKY/WX    TMP DP  RH WIND       PRES   REMARKS
REEDSBURG      SUNNY     80  68  67 CALM      29.98R HX  83
BARABOO/DELLS  SUNNY     81  64  56 S6        29.99R HX  82
LONE ROCK      SUNNY     80  70  71 E3        29.98S HX  83
MINERAL POINT  SUNNY     81  68  65 SE3       30.01S HX  83
MADISON        CLOUDY    79  67  66 S12       30.00R HX  81
MIDDLETON      CLOUDY    82  68  62 SE8       30.01R HX  84
WATERTOWN      CLOUDY    78  71  76 S8        30.00R HX  81
MONROE         MOSUNNY   75  64  69 SE7       30.00R
JANESVILLE     CLOUDY    81  68  65 SE8       29.99S HX  83
$$

WIZ051-052-058>065-066-070>072-210000-
SOUTHEAST WISCONSIN

CITY           SKY/WX    TMP DP  RH WIND       PRES   REMARKS
MILWAUKEE      CLOUDY    79  67  66 S7        30.00S HX  81
WAUKESHA       SUNNY     77  64  65 SW6       30.01S
MILWAUKEE/TIMM SUNNY     79  64  61 SW5       30.00S HX  81
RACINE         CLOUDY    77  67  71 S9        30.02S
KENOSHA        CLOUDY    79  65  62 S6        30.01S HX  81
FOND DU LAC    PTSUNNY   80  65  59 SW6       29.99R HX  82
SHEBOYGAN      PTSUNNY   78  71  79 S8        29.98F HX  80
WEST BEND      CLOUDY    79  68  69 S6        30.00S HX  81
JUNEAU         CLOUDY    78  68  71 SE6       30.00S HX  80
$$

LSZ147-162-210000-
LAKE SUPERIOR

STATION/POSITION TIME  TEMP    WIND        PRES    WAVE
                       AIR SEA DIR/SP/G            HT/PER
                 (UTC) (F)     (DEG/KT/KT) (MB)    (FT/S)
W MID LAKE BUOY  2150   64 60  250/ 12/ 14 1010.7R   2/ 3
DEVILS ISLAND    2200   70     240/ 16/ 18 1011.3R
SAXON HARBOR     2240   77     200/  2/  5 1012.2R
$$

LMZ867-665-643>646-210000-
LAKE MICHIGAN

STATION/POSITION TIME  TEMP    WIND        PRES    WAVE
                       AIR SEA DIR/SP/G            HT/PER
                 (UTC) (F)     (DEG/KT/KT) (MB)    (FT/S)
S GREEN BAY BUOY 2230   75 72  200/ 12/ 14 1013.5F
N MID LAKE BUOY  2150   69 68  180/ 17/ 19 1014.0F   3/ 4
NORTHPORT PIER   2240   73     180/  6/ 12 1013.2S
KEWAUNEE LAKESHO 2230   69     180/ 11/ 12 1014.0F
SHEBOYGAN LAKESH 2200   71     180/ 15/ 16 1014.9F
PORT WASHINGTON  2230   74     190/  6/  9 1016.3S
ATWATER BUOY     2109   72 70  150/ 14/ 17 1015.7F
MILWAUKEE LAKESH 2230   72     140/ 12/ 13   N/A
S MID LAKE BUOY  2150   74 72  110/  6/  6 1016.3F   1/ 3
KENOSHA   LAKESH 2200   74     170/  8/  9 1015.9
$$

TC  - TEMPERATURE IN CELSIUS
VSB - VISIBILITY IN STATUTE MILES
WCI - WIND CHILL INDEX
HX  - HEAT INDEX




USA.gov is the U.S. government's official web portal to all federal, state and local government web resources and services.